Wind_Speed
6 5 3 2 2 6 9 9 9 12 16 19 15 14 17 18 25 29 29 30 33 33 34 35 35 33 31 30 31 26 24 21 18 18 16 12 12 14 13 12 14 15 15 17 14
7 8 7 4 3 2 5 7 7 9 11 14 15 15 17 22 26 30 28 33 36 36 38 38 36 35 34 29 29 28 26 23 19 17 18 17 15 14 14 13 12 14 17 18 16
6 8 11 8 6 4 2 5 7 6 8 9 14 15 16 17 23 28 28 31 31 30 34 35 37 37 37 34 28 25 25 22 21 17 15 14 16 16 13 14 13 11 16 17 16
7 8 11 12 10 8 6 5 6 7 7 7 11 15 15 16 23 26 27 30 30 25 27 28 29 30 32 33 32 28 26 24 20 19 19 16 12 13 12 14 14 10 12 17 15
8 8 10 12 13 12 10 8 6 7 8 9 9 15 18 15 17 22 23 24 25 22 21 20 20 26 29 29 30 29 26 30 29 24 18 17 17 17 16 13 14 11 11 14 13
10 9 10 11 13 14 14 12 9 8 9 10 10 11 16 15 14 16 21 24 23 19 18 17 17 23 28 27 32 33 27 27 31 28 25 18 16 15 16 17 14 13 12 14 13
14 12 10 12 13 15 15 15 13 11 10 11 11 11 12 13 14 14 18 23 22 22 20 19 20 22 25 29 31 32 32 30 25 28 27 22 19 17 14 16 17 15 14 15 15
17 16 13 11 13 15 15 15 16 14 12 13 13 12 11 11 12 16 15 19 20 21 17 17 17 22 23 24 26 25 26 26 27 26 26 25 22 17 16 14 17 18 16 15 15
23 19 17 14 13 14 16 16 16 16 14 13 15 14 12 11 13 12 18 17 15 17 13 15 17 18 21 19 19 21 21 21 23 25 25 24 24 19 17 16 13 15 16 14 12
28 24 20 18 15 13 15 17 17 16 15 14 14 15 12 15 15 14 13 17 12 16 13 15 16 16 16 15 13 14 15 16 18 18 18 22 20 21 18 15 14 13 12 12 12
34 29 25 22 19 15 13 15 18 19 16 15 15 15 17 18 16 16 13 13 13 12 12 12 13 11 13 11 12 8 8 12 14 16 14 13 16 12 16 11 12 13 13 14 13
38 35 31 26 22 18 15 15 16 19 21 20 18 18 21 19 17 18 15 13 13 13 11 13 11 10 11 9 8 6 7 8 9 14 13 8 14 18 10 10 11 13 11 11 13
30 39 37 32 27 22 18 16 16 19 22 22 20 21 23 20 19 21 20 16 16 15 12 13 12 10 10 7 5 7 4 8 8 14 12 12 8 18 17 18 18 14 12 12 6
26 32 39 39 34 27 24 20 18 19 19 21 22 23 24 21 21 26 23 20 19 16 14 13 14 7 12 16 7 5 6 12 15 13 12 12 8 7 11 14 13 15 11 7 5
26 24 32 41 41 36 31 27 23 21 21 24 23 24 23 21 22 27 27 24 20 18 16 15 12 9 15 18 13 7 8 12 14 15 10 7 9 8 7 8 10 15 14 8 5
27 26 26 34 42 42 38 33 30 28 23 22 22 22 24 23 28 28 29 27 26 23 18 16 13 11 12 14 15 9 11 13 13 11 8 9 9 8 5 3 8 13 13 12 9
31 30 30 31 36 42 43 41 38 35 27 26 24 22 25 26 29 31 28 30 29 26 20 18 14 10 12 14 17 13 14 11 9 6 6 8 10 7 2 3 7 10 15 15 13
32 34 35 34 33 39 42 45 47 41 33 31 26 26 24 28 31 31 29 31 32 28 24 21 19 16 15 15 16 18 16 14 11 7 5 6 10 7 4 3 4 7 15 15 11
32 35 39 40 39 38 40 48 47 44 40 36 31 30 29 29 30 32 33 30 31 29 26 21 20 20 20 21 22 21 21 16 13 12 9 4 8 9 4 3 3 5 10 12 13
23 32 39 43 45 46 45 39 46 45 43 41 38 35 33 32 30 32 33 31 32 29 26 25 25 26 24 24 25 24 23 22 20 17 17 12 8 10 7 4 4 5 4 7 9
24 25 30 42 49 52 50 46 42 45 47 44 42 39 37 35 33 33 31 28 32 32 32 31 30 31 29 28 26 27 26 26 22 22 20 19 8 12 13 10 5 8 10 7 9
28 32 30 32 41 51 53 54 50 45 47 48 45 44 42 41 39 36 34 31 32 33 35 33 34 36 32 31 29 31 28 32 27 25 24 22 9 13 12 9 6 9 10 12 9
36 40 41 38 35 44 53 58 58 54 50 50 50 47 45 45 43 40 37 32 35 35 35 34 37 35 35 35 32 29 26 33 33 34 32 27 17 13 11 10 10 13 13 11 13
43 42 40 38 39 40 50 58 62 60 58 54 52 52 49 49 49 45 39 34 34 37 38 37 38 38 38 32 28 29 26 30 38 38 36 31 26 22 16 13 12 12 13 13 15
44 44 41 41 43 41 47 56 61 63 61 58 55 52 52 53 53 46 42 36 36 38 41 41 40 38 39 38 36 34 29 30 34 36 38 36 30 25 24 19 16 15 15 15 21
45 46 44 42 41 40 43 50 57 61 64 60 57 52 56 56 54 49 44 38 36 36 38 39 40 38 38 43 40 38 35 34 32 34 35 35 34 26 24 24 24 27 22 19 22
46 43 41 35 34 35 37 45 47 55 59 59 60 57 59 51 53 54 49 42 39 40 41 39 40 39 40 42 42 43 41 35 32 31 32 34 28 24 25 26 20 16 17 16 19
Wind_Direction
198 211 204 180 99 82 89 96 103 106 118 131 130 113 109 109 106 98 95 95 93 93 86 88 87 81 79 78 74 79 84 85 91 88 90 96 97 97 102 96 95 98 96 93 93
198 207 219 211 198 126 99 104 113 112 115 119 123 124 113 116 118 103 103 97 93 92 91 91 86 81 73 76 78 75 77 84 92 93 85 82 86 92 96 100 98 101 103 100 107
203 206 214 220 214 211 174 130 129 131 125 125 120 122 121 118 118 120 112 109 107 100 96 96 90 83 77 70 70 74 71 73 81 91 94 83 81 84 92 98 98 101 107 102 108
210 209 213 217 223 220 220 194 155 156 154 143 133 128 128 121 124 130 128 121 111 110 106 102 99 92 84 73 65 62 75 70 72 84 84 88 88 90 90 94 98 103 107 104 103
229 216 216 215 222 229 229 223 198 174 176 171 154 139 139 136 135 137 131 131 119 114 114 110 100 101 92 81 73 66 64 72 68 71 76 84 82 83 88 99 104 107 109 107 106
240 232 222 221 221 228 233 237 226 197 189 188 178 164 148 147 152 149 139 139 132 123 121 114 103 104 92 88 80 71 67 72 77 75 67 72 80 80 77 79 100 114 115 111 101
246 238 232 227 224 225 232 236 239 227 196 201 202 186 175 159 154 163 149 147 147 134 126 117 108 100 97 94 85 82 72 65 71 81 76 66 72 77 80 81 86 114 121 112 107
236 243 235 232 229 228 231 237 238 238 222 198 210 210 197 186 169 167 173 159 153 149 140 134 118 104 98 98 90 84 80 72 63 69 79 74 75 75 75 73 77 91 116 120 124
237 238 241 234 232 232 231 235 240 240 232 217 208 212 206 198 200 184 177 174 167 161 148 136 128 114 107 93 90 87 80 82 76 67 69 80 80 81 73 71 76 84 87 92 102
236 237 239 241 235 233 236 235 239 242 241 231 216 218 211 216 207 204 194 186 185 168 162 143 129 129 123 113 98 82 89 82 85 72 61 63 83 92 89 83 85 87 94 96 95
235 236 237 239 241 235 237 239 238 238 238 233 220 217 215 214 214 216 208 198 200 184 170 159 145 145 131 128 125 112 98 110 96 80 68 49 52 91 100 99 94 84 87 94 96
238 237 238 239 237 238 237 238 240 236 233 230 223 219 223 213 217 222 218 211 207 205 183 176 172 152 146 125 140 148 118 128 113 101 90 65 55 61 74 95 80 85 76 86 101
242 239 240 240 240 240 243 241 238 238 237 235 228 224 225 223 210 214 221 210 211 216 206 192 187 167 161 204 185 172 162 128 129 125 109 80 65 61 63 69 83 91 71 53 88
246 243 241 242 241 238 243 247 245 241 240 240 233 226 223 223 213 217 220 216 215 212 216 214 199 181 183 230 222 182 173 139 140 135 122 103 81 46 48 53 78 87 73 74 91
244 249 245 244 243 242 240 243 247 248 243 240 237 229 227 221 211 217 218 219 220 217 212 213 210 195 203 227 241 206 163 160 163 146 129 131 94 76 55 39 57 80 83 72 43
240 244 247 243 244 245 245 243 242 246 245 244 242 235 227 216 219 222 218 216 219 214 210 218 214 210 218 235 243 219 166 166 165 168 152 145 121 93 95 57 65 77 62 47 29
239 246 247 247 241 241 245 245 243 242 246 246 244 239 229 218 221 223 223 222 220 217 208 215 203 197 217 235 237 238 184 173 173 183 195 153 150 139 145 15 65 80 71 56 36
245 247 253 254 253 246 238 240 242 242 241 246 248 244 237 226 222 223 224 226 223 218 217 211 204 207 214 219 225 228 203 186 185 199 172 164 156 159 159 323 38 69 64 50 39
255 250 250 252 252 253 249 241 241 243 242 243 242 244 241 236 232 228 227 223 225 222 219 210 204 215 219 218 215 213 209 196 208 224 239 230 190 191 144 344 18 47 69 41 21
271 261 252 250 250 251 250 251 244 240 236 237 237 237 238 237 233 232 229 226 221 222 216 211 212 214 221 221 223 216 207 211 212 227 235 254 251 211 209 265 314 344 38 58 17
298 288 270 253 248 247 248 249 244 240 239 230 229 232 233 233 232 229 228 223 223 219 217 212 211 214 218 222 224 229 221 221 222 221 234 247 243 207 202 239 278 305 324 342 354
301 303 295 275 255 248 245 243 241 237 235 233 227 224 226 230 230 227 227 219 223 219 221 216 212 212 220 222 222 227 224 221 230 237 239 249 217 215 225 227 267 298 313 329 323
299 297 292 286 270 253 244 241 239 233 231 231 229 226 220 227 231 228 224 221 223 223 223 217 216 213 217 222 227 230 232 222 225 236 245 251 247 240 245 256 271 302 313 321 295
303 300 292 284 279 261 245 239 238 235 228 229 226 225 221 221 227 229 226 216 221 226 222 219 219 217 223 226 230 234 233 231 232 241 250 255 253 250 254 266 275 292 294 297 309
304 302 294 290 283 267 248 239 235 233 230 226 227 225 224 220 223 227 226 220 221 225 227 224 228 223 217 217 223 225 230 239 245 251 252 255 252 257 261 264 284 271 288 300 310
305 301 295 288 281 268 252 237 233 230 228 223 225 220 222 222 224 219 221 220 221 228 230 229 228 224 217 213 220 226 227 233 241 248 249 250 252 247 252 261 266 285 285 289 293
305 298 292 287 277 266 251 240 235 229 226 221 219 217 219 218 224 222 218 215 220 222 225 227 228 224 220 216 216 228 226 232 239 245 245 247 249 256 260 266 268 264 266 274 282
Height
5934 5935 5936 5937 5938 5940 5941 5942 5942 5943 5943 5943 5943 5944 5944 5944 5945 5945 5944 5944 5942 5941 5940 5939 5939 5939 5939 5937 5936 5935 5934 5932 5932 5931 5930 5930 5929 5929 5930 5930 5929 5929 5930 5929 5929
5934 5935 5936 5938 5938 5940 5942 5943 5944 5945 5945 5945 5946 5946 5947 5947 5947 5948 5948 5948 5948 5947 5946 5945 5945 5945 5944 5943 5942 5941 5939 5937 5935 5934 5933 5932 5932 5932 5933 5933 5933 5931 5932 5932 5933
5934 5935 5936 5937 5939 5940 5941 5943 5945 5945 5947 5947 5948 5948 5949 5950 5950 5951 5951 5952 5952 5951 5951 5949 5949 5949 5948 5947 5946 5944 5943 5942 5940 5937 5936 5936 5935 5935 5935 5935 5935 5936 5935 5935 5937
5934 5934 5936 5937 5939 5940 5941 5943 5945 5947 5948 5948 5950 5950 5951 5953 5953 5952 5955 5955 5956 5955 5954 5954 5952 5951 5950 5949 5949 5948 5947 5946 5944 5941 5939 5939 5939 5938 5938 5938 5937 5939 5940 5939 5940
5933 5934 5935 5937 5938 5940 5941 5943 5945 5947 5948 5949 5950 5952 5953 5954 5955 5954 5956 5958 5958 5958 5957 5957 5956 5954 5954 5953 5952 5951 5951 5949 5946 5945 5945 5943 5943 5942 5941 5940 5940 5941 5942 5942 5943
5932 5933 5934 5936 5938 5939 5941 5942 5944 5946 5948 5949 5951 5952 5954 5956 5956 5956 5956 5959 5960 5960 5960 5960 5960 5958 5957 5956 5955 5954 5955 5953 5951 5951 5949 5948 5946 5945 5944 5943 5943 5943 5944 5944 5945
5931 5932 5933 5934 5936 5938 5939 5941 5943 5945 5947 5948 5950 5952 5954 5957 5957 5958 5957 5959 5961 5961 5961 5962 5961 5961 5960 5960 5958 5957 5958 5957 5957 5955 5953 5952 5949 5947 5947 5946 5945 5945 5946 5946 5947
5927 5930 5931 5932 5934 5936 5938 5939 5941 5943 5945 5949 5949 5950 5953 5955 5956 5957 5959 5959 5961 5962 5963 5963 5963 5963 5963 5963 5962 5962 5960 5961 5961 5959 5957 5956 5953 5951 5950 5950 5949 5948 5948 5948 5948
5924 5926 5928 5930 5932 5933 5935 5937 5938 5941 5944 5946 5949 5950 5952 5954 5954 5956 5958 5961 5961 5962 5963 5964 5964 5964 5965 5965 5965 5965 5965 5964 5963 5963 5962 5960 5958 5956 5954 5953 5953 5953 5952 5952 5952
5920 5923 5925 5927 5930 5932 5933 5934 5936 5938 5941 5944 5946 5950 5952 5952 5954 5955 5956 5959 5961 5962 5963 5964 5964 5965 5965 5966 5968 5968 5968 5968 5966 5966 5965 5964 5962 5960 5959 5957 5955 5955 5955 5955 5955
5915 5918 5921 5923 5926 5929 5931 5932 5935 5937 5937 5941 5944 5945 5947 5950 5952 5953 5955 5957 5959 5962 5962 5963 5964 5965 5966 5966 5968 5970 5971 5971 5970 5969 5967 5967 5966 5964 5962 5962 5960 5958 5957 5957 5956
5910 5913 5916 5919 5922 5925 5927 5929 5931 5933 5934 5936 5939 5941 5942 5946 5949 5951 5954 5956 5958 5961 5962 5963 5963 5964 5966 5967 5969 5971 5971 5972 5972 5970 5970 5969 5968 5967 5965 5964 5964 5963 5962 5960 5959
5904 5907 5911 5914 5918 5922 5923 5925 5927 5928 5930 5933 5936 5938 5940 5943 5946 5948 5950 5953 5955 5957 5960 5961 5962 5963 5965 5967 5970 5971 5971 5972 5973 5972 5971 5971 5971 5970 5969 5968 5966 5966 5965 5963 5962
5899 5901 5905 5908 5914 5917 5919 5921 5923 5924 5927 5929 5931 5933 5936 5939 5942 5943 5947 5951 5951 5954 5957 5959 5959 5961 5964 5967 5969 5970 5971 5972 5973 5974 5973 5972 5974 5972 5972 5970 5969 5967 5966 5964 5963
5893 5896 5898 5901 5906 5911 5914 5915 5918 5920 5923 5924 5926 5929 5933 5937 5939 5940 5943 5946 5949 5952 5955 5958 5957 5959 5963 5965 5967 5970 5970 5971 5972 5974 5973 5974 5974 5974 5972 5972 5970 5967 5967 5965 5963
5887 5889 5891 5893 5897 5903 5906 5910 5912 5916 5918 5919 5921 5924 5927 5932 5932 5934 5937 5942 5945 5948 5951 5954 5956 5958 5961 5962 5965 5968 5969 5970 5971 5973 5974 5974 5974 5974 5973 5972 5972 5968 5966 5965 5963
5882 5883 5885 5886 5889 5893 5897 5902 5906 5908 5913 5915 5917 5920 5922 5925 5926 5929 5933 5936 5940 5944 5947 5951 5954 5956 5958 5960 5962 5965 5968 5969 5971 5971 5973 5973 5973 5974 5973 5972 5972 5970 5967 5965 5964
5875 5877 5878 5881 5882 5884 5887 5891 5896 5903 5906 5909 5913 5915 5918 5919 5921 5924 5928 5930 5934 5939 5943 5947 5951 5953 5955 5957 5960 5962 5966 5967 5969 5971 5972 5972 5973 5974 5972 5970 5971 5970 5967 5966 5966
5867 5869 5871 5872 5874 5875 5878 5881 5891 5895 5900 5903 5906 5908 5911 5914 5918 5919 5922 5926 5930 5934 5939 5943 5947 5949 5951 5953 5956 5958 5961 5964 5965 5967 5969 5971 5972 5972 5971 5970 5970 5969 5966 5966 5965
5859 5859 5861 5862 5864 5865 5868 5875 5879 5884 5888 5893 5896 5900 5904 5907 5911 5913 5916 5922 5925 5929 5934 5938 5942 5944 5946 5949 5951 5954 5958 5960 5962 5964 5966 5968 5970 5971 5970 5969 5968 5968 5967 5966 5965
5851 5850 5850 5851 5851 5854 5858 5864 5867 5871 5875 5881 5885 5890 5894 5898 5903 5906 5911 5917 5919 5923 5926 5931 5935 5940 5942 5944 5947 5950 5952 5955 5959 5960 5962 5964 5968 5969 5968 5967 5966 5966 5965 5965 5965
5843 5841 5839 5838 5840 5841 5846 5849 5854 5859 5862 5868 5874 5878 5883 5888 5893 5899 5905 5910 5913 5917 5920 5925 5929 5931 5936 5938 5941 5943 5947 5951 5954 5956 5957 5959 5964 5965 5966 5965 5964 5964 5963 5962 5962
5831 5829 5827 5825 5825 5826 5830 5833 5837 5845 5849 5856 5863 5867 5873 5879 5885 5890 5896 5903 5906 5910 5914 5919 5921 5926 5929 5933 5937 5940 5943 5944 5948 5949 5951 5954 5959 5961 5962 5962 5962 5961 5960 5959 5959
5818 5815 5811 5810 5810 5810 5812 5816 5822 5829 5834 5841 5849 5855 5864 5869 5873 5880 5888 5895 5899 5902 5906 5910 5913 5918 5923 5931 5935 5936 5939 5940 5942 5943 5946 5949 5952 5955 5957 5958 5958 5957 5957 5956 5954
5804 5799 5796 5794 5792 5793 5794 5799 5804 5811 5820 5828 5836 5847 5855 5860 5863 5872 5879 5887 5891 5894 5897 5902 5906 5912 5917 5924 5926 5929 5932 5934 5936 5938 5940 5945 5946 5950 5952 5953 5954 5954 5953 5952 5951
5790 5785 5781 5778 5775 5775 5776 5781 5785 5792 5804 5817 5826 5835 5839 5848 5857 5865 5870 5876 5881 5885 5889 5896 5900 5905 5910 5916 5919 5922 5924 5926 5929 5931 5933 5937 5940 5945 5947 5947 5948 5949 5948 5948 5946
5777 5771 5766 5764 5762 5761 5763 5766 5770 5776 5787 5799 5810 5817 5825 5844 5849 5854 5859 5868 5873 5876 5881 5888 5892 5897 5904 5909 5913 5913 5916 5921 5924 5925 5928 5930 5935 5938 5940 5942 5943 5943 5943 5943 5941